| time (UTC) | temp F | wind direction | speed MPH | gust MPH | rain 1hr in | rain 24hr in | rain mn in | humidity % | barometer mb |
| 20260831231332 | 62 | 247 | 0.0 | 2.0 | 0.00 | 0.74 | 0.00 | 91 | 1015.0 |
| 20260831230809 | 62 | 201 | 0.0 | 2.0 | 0.00 | 0.74 | 0.00 | 91 | 1014.9 |
| 20260831230309 | 62 | 238 | 0.0 | 1.0 | 0.00 | 0.74 | 0.00 | 91 | 1014.9 |
| 20260831225811 | 62 | 245 | 0.0 | 1.0 | 0.00 | 0.74 | 0.00 | 91 | 1014.9 |
| 20260831224815 | 61 | 205 | 0.0 | 0.0 | 0.00 | 0.74 | 0.00 | 91 | 1014.9 |
| 20260831224310 | 61 | 205 | 0.0 | 0.0 | 0.00 | 0.74 | 0.00 | 91 | 1014.9 |
| 20260831223809 | 61 | 205 | 0.0 | 0.0 | 0.00 | 0.74 | 0.00 | 91 | 1014.8 |
| 20260831223324 | 61 | 205 | 0.0 | 0.0 | 0.00 | 0.74 | 0.00 | 91 | 1014.9 |
| 20260831222824 | 61 | 205 | 0.0 | 0.0 | 0.00 | 0.74 | 0.00 | 91 | 1014.8 |
| 20260831222312 | 61 | 205 | 0.0 | 0.0 | 0.00 | 0.74 | 0.00 | 91 | 1014.9 |
| 20260831221821 | 61 | 205 | 0.0 | 0.0 | 0.00 | 0.74 | 0.00 | 91 | 1014.9 |
| 20260831221311 | 61 | 205 | 0.0 | 0.0 | 0.00 | 0.74 | 0.00 | 91 | 1014.8 |
| 20260831220810 | 61 | 205 | 0.0 | 0.0 | 0.00 | 0.74 | 0.00 | 91 | 1014.9 |
| 20260831220316 | 60 | 205 | 0.0 | 0.0 | 0.00 | 0.74 | 0.00 | 91 | 1014.9 |
| 20260831215811 | 60 | 205 | 0.0 | 0.0 | 0.00 | 0.74 | 0.74 | 91 | 1014.8 |
| 20260831215239 | 60 | 205 | 0.0 | 0.0 | 0.00 | 0.74 | 0.74 | 91 | 1014.8 |
| 20260831213715 | 60 | 205 | 0.0 | 0.0 | 0.00 | 0.74 | 0.74 | 91 | 1014.8 |
| 20260831213208 | 60 | 205 | 0.0 | 0.0 | 0.00 | 0.75 | 0.74 | 91 | 1014.8 |
| 20260831212708 | 60 | 205 | 0.0 | 0.0 | 0.00 | 0.75 | 0.74 | 91 | 1014.8 |
| 20260831212210 | 60 | 205 | 0.0 | 0.0 | 0.00 | 0.75 | 0.74 | 91 | 1014.7 |
| 20260831211708 | 60 | 205 | 0.0 | 0.0 | 0.00 | 0.75 | 0.74 | 91 | 1014.6 |
| 20260831211210 | 60 | 205 | 0.0 | 0.0 | 0.00 | 0.75 | 0.74 | 91 | 1014.6 |
| 20260831210714 | 60 | 205 | 0.0 | 0.0 | 0.00 | 0.75 | 0.74 | 91 | 1014.5 |
| 20260831210213 | 60 | 205 | 0.0 | 0.0 | 0.00 | 0.75 | 0.74 | 91 | 1014.5 |
| 20260831205708 | 60 | 205 | 0.0 | 0.0 | 0.00 | 0.75 | 0.74 | 91 | 1014.4 |
| 20260831205205 | 60 | 205 | 0.0 | 0.0 | 0.00 | 0.75 | 0.74 | 91 | 1014.4 |
| 20260831204648 | 60 | 205 | 0.0 | 0.0 | 0.00 | 0.75 | 0.74 | 91 | 1014.3 |
| 20260831204136 | 60 | 205 | 0.0 | 0.0 | 0.00 | 0.75 | 0.74 | 91 | 1014.3 |
| 20260831203634 | 61 | 205 | 0.0 | 0.0 | 0.00 | 0.75 | 0.74 | 91 | 1014.2 |
| 20260831203110 | 61 | 205 | 0.0 | 0.0 | 0.00 | 0.75 | 0.74 | 91 | 1014.2 |
| 20260831202612 | 61 | 205 | 0.0 | 0.0 | 0.00 | 0.75 | 0.74 | 91 | 1014.2 |
| 20260831202107 | 61 | 205 | 0.0 | 0.0 | 0.00 | 0.75 | 0.74 | 90 | 1014.2 |
| 20260831201607 | 61 | 205 | 0.0 | 0.0 | 0.00 | 0.75 | 0.74 | 90 | 1014.1 |
| 20260831201102 | 62 | 205 | 0.0 | 0.0 | 0.00 | 0.75 | 0.74 | 90 | 1014.0 |
| 20260831200027 | 62 | 205 | 0.0 | 0.0 | 0.00 | 0.75 | 0.74 | 90 | 1014.0 |
| 20260831195516 | 62 | 205 | 0.0 | 1.0 | 0.00 | 0.75 | 0.74 | 90 | 1013.9 |
| 20260831195022 | 62 | 205 | 0.0 | 1.0 | 0.00 | 0.75 | 0.74 | 90 | 1013.8 |
| 20260831194016 | 63 | 205 | 0.0 | 5.0 | 0.00 | 0.75 | 0.74 | 90 | 1013.8 |
| 20260831193536 | 63 | 233 | 0.0 | 5.0 | 0.00 | 0.75 | 0.74 | 89 | 1013.8 |
| 20260831193035 | 63 | 254 | 0.0 | 9.0 | 0.00 | 0.75 | 0.74 | 89 | 1013.7 |
| 20260831192525 | 63 | 254 | 0.0 | 9.0 | 0.00 | 0.75 | 0.74 | 89 | 1013.7 |
| 20260831192021 | 62 | 256 | 0.0 | 6.0 | 0.00 | 0.75 | 0.74 | 90 | 1013.6 |
| 20260831191525 | 62 | 256 | 0.0 | 6.0 | 0.00 | 0.75 | 0.74 | 89 | 1013.5 |
| 20260831190546 | 63 | 224 | 0.0 | 5.0 | 0.00 | 0.75 | 0.74 | 89 | 1013.3 |
| 20260831190015 | 63 | 227 | 0.0 | 2.0 | 0.00 | 0.75 | 0.74 | 89 | 1013.3 |
| 20260831184433 | 63 | 219 | 1.0 | 9.0 | 0.00 | 0.75 | 0.74 | 89 | 1012.9 |
| 20260831183909 | 63 | 246 | 0.0 | 9.0 | 0.00 | 0.75 | 0.74 | 90 | 1012.9 |
| 20260831183413 | 63 | 236 | 0.0 | 0.0 | 0.00 | 0.75 | 0.74 | 90 | 1012.7 |
| 20260831182909 | 63 | 250 | 0.0 | 9.0 | 0.00 | 0.75 | 0.74 | 90 | 1012.7 |
| 20260831181906 | 62 | 215 | 0.0 | 0.0 | 0.00 | 0.75 | 0.74 | 90 | 1012.4 |
| 20260831181334 | 62 | 205 | 0.0 | 6.0 | 0.00 | 0.75 | 0.74 | 90 | 1012.4 |
| 20260831180829 | 62 | 206 | 0.0 | 6.0 | 0.00 | 0.75 | 0.74 | 90 | 1012.3 |
| 20260831180317 | 62 | 163 | 0.0 | 3.0 | 0.00 | 0.75 | 0.74 | 90 | 1012.2 |
| 20260831175337 | 62 | 226 | 1.0 | 12.0 | 0.00 | 0.75 | 0.70 | 90 | 1012.0 |
| 20260831174324 | 62 | 186 | 1.0 | 10.0 | 0.04 | 0.75 | 0.70 | 90 | 1011.9 |
| 20260831173819 | 62 | 256 | 1.0 | 10.0 | 0.04 | 0.75 | 0.70 | 90 | 1011.8 |
| 20260831173318 | 62 | 229 | 1.0 | 9.0 | 0.04 | 0.75 | 0.70 | 90 | 1011.8 |
| 20260831172746 | 62 | 149 | 1.0 | 9.0 | 0.04 | 0.75 | 0.70 | 90 | 1011.8 |
| 20260831172234 | 62 | 188 | 1.0 | 9.0 | 0.04 | 0.75 | 0.70 | 91 | 1011.7 |
| 20260831171712 | 62 | 252 | 1.0 | 9.0 | 0.04 | 0.75 | 0.70 | 91 | 1011.7 |
| 20260831171225 | 62 | 244 | 1.0 | 7.0 | 0.04 | 0.75 | 0.70 | 91 | 1011.7 |
| 20260831170218 | 62 | 253 | 2.0 | 12.0 | 0.04 | 0.75 | 0.74 | 91 | 1011.5 |
| 20260831165710 | 62 | 244 | 2.0 | 14.0 | 0.04 | 0.75 | 0.71 | 91 | 1011.5 |
| 20260831165213 | 63 | 174 | 1.0 | 14.0 | 0.04 | 0.75 | 0.67 | 90 | 1011.3 |
| 20260831164215 | 63 | 231 | 2.0 | 15.0 | 0.01 | 0.71 | 0.67 | 90 | 1011.3 |
| 20260831163713 | 63 | 153 | 2.0 | 15.0 | 0.01 | 0.71 | 0.67 | 89 | 1011.1 |
| 20260831162712 | 62 | 207 | 0.0 | 10.0 | 0.01 | 0.71 | 0.67 | 91 | 1011.0 |
| 20260831162246 | 62 | 211 | 0.0 | 3.0 | 0.02 | 0.71 | 0.67 | 91 | 1010.8 |
| 20260831161717 | 62 | 27 | 0.0 | 3.0 | 0.02 | 0.71 | 0.67 | 91 | 1010.8 |
| 20260831161227 | 62 | 146 | 0.0 | 7.0 | 0.02 | 0.71 | 0.67 | 91 | 1010.8 |
| 20260831160710 | 62 | 197 | 1.0 | 7.0 | 0.03 | 0.71 | 0.67 | 91 | 1010.8 |
| 20260831160219 | 62 | 166 | 1.0 | 5.0 | 0.03 | 0.71 | 0.70 | 91 | 1010.6 |
| 20260831155210 | 62 | 168 | 0.0 | 11.0 | 0.03 | 0.71 | 0.67 | 91 | 1010.6 |
| 20260831154719 | 62 | 257 | 0.0 | 7.0 | 0.03 | 0.70 | 0.66 | 91 | 1010.4 |
| 20260831153727 | 62 | 156 | 1.0 | 7.0 | 0.03 | 0.70 | 0.66 | 91 | 1010.4 |
| 20260831152721 | 62 | 278 | 0.0 | 4.0 | 0.03 | 0.70 | 0.65 | 91 | 1010.2 |
| 20260831151710 | 62 | 153 | 0.0 | 0.0 | 0.04 | 0.69 | 0.65 | 91 | 1010.2 |
| 20260831150635 | 62 | 193 | 0.0 | 10.0 | 0.03 | 0.68 | 0.64 | 91 | 1010.1 |
| 20260831150155 | 62 | 178 | 0.0 | 3.0 | 0.03 | 0.68 | 0.67 | 91 | 1010.0 |
| 20260831145135 | 62 | 160 | 0.0 | 12.0 | 0.03 | 0.68 | 0.60 | 91 | 1009.9 |
| 20260831144615 | 62 | 194 | 0.0 | 10.0 | 0.02 | 0.67 | 0.60 | 91 | 1009.8 |
| 20260831144119 | 62 | 245 | 0.0 | 10.0 | 0.02 | 0.67 | 0.60 | 91 | 1009.9 |
| 20260831143546 | 62 | 158 | 0.0 | 4.0 | 0.04 | 0.67 | 0.60 | 91 | 1009.8 |
| 20260831143058 | 61 | 158 | 0.0 | 4.0 | 0.04 | 0.67 | 0.60 | 91 | 1009.8 |
| 20260831142546 | 61 | 199 | 0.0 | 3.0 | 0.06 | 0.67 | 0.60 | 91 | 1009.7 |
| 20260831142114 | 61 | 177 | 0.0 | 4.0 | 0.06 | 0.65 | 0.58 | 91 | 1009.5 |
| 20260831141602 | 61 | 177 | 0.0 | 4.0 | 0.07 | 0.65 | 0.58 | 91 | 1009.5 |
| 20260831141119 | 61 | 177 | 0.0 | 7.0 | 0.06 | 0.65 | 0.57 | 91 | 1009.4 |
| 20260831140607 | 61 | 138 | 0.0 | 7.0 | 0.06 | 0.65 | 0.57 | 91 | 1009.3 |
| 20260831140029 | 61 | 184 | 0.0 | 0.0 | 0.06 | 0.65 | 0.64 | 91 | 1009.2 |
| 20260831135039 | 61 | 169 | 0.0 | 1.0 | 0.09 | 0.65 | 0.64 | 91 | 1009.0 |
| 20260831134447 | 61 | 169 | 0.0 | 0.0 | 0.09 | 0.65 | 0.64 | 91 | 1009.0 |
| 20260831133432 | 61 | 196 | 0.0 | 1.0 | 0.07 | 0.63 | 0.61 | 91 | 1009.0 |
| 20260831132917 | 61 | 197 | 0.0 | 5.0 | 0.06 | 0.62 | 0.61 | 91 | 1009.0 |
| 20260831132412 | 61 | 191 | 0.0 | 5.0 | 0.05 | 0.61 | 0.60 | 91 | 1008.8 |
| 20260831131835 | 61 | 188 | 0.0 | 0.0 | 0.02 | 0.58 | 0.57 | 91 | 1008.7 |
| 20260831131324 | 61 | 270 | 0.0 | 3.0 | 0.02 | 0.58 | 0.57 | 91 | 1008.7 |
| 20260831130811 | 61 | 181 | 0.0 | 3.0 | 0.02 | 0.58 | 0.57 | 91 | 1008.6 |
| 20260831130309 | 62 | 169 | 0.0 | 5.0 | 0.02 | 0.58 | 0.57 | 91 | 1008.7 |
| 20260831125812 | 62 | 244 | 0.0 | 5.0 | 0.02 | 0.57 | 0.57 | 91 | 1008.7 |
| 20260831124815 | 62 | 189 | 0.0 | 5.0 | 0.00 | 0.56 | 0.55 | 91 | 1008.4 |
| 20260831124311 | 62 | 156 | 1.0 | 6.0 | 0.00 | 0.56 | 0.55 | 91 | 1008.4 |
| 20260831123813 | 62 | 179 | 1.0 | 6.0 | 0.00 | 0.56 | 0.55 | 91 | 1008.2 |
| 20260831123320 | 62 | 174 | 1.0 | 6.0 | 0.00 | 0.56 | 0.55 | 92 | 1008.1 |
| 20260831122810 | 62 | 160 | 1.0 | 10.0 | 0.00 | 0.56 | 0.55 | 92 | 1008.1 |
| 20260831121814 | 61 | 219 | 1.0 | 5.0 | 0.00 | 0.56 | 0.55 | 93 | 1007.8 |
| 20260831121309 | 61 | 183 | 1.0 | 10.0 | 0.00 | 0.56 | 0.55 | 93 | 1007.8 |
| 20260831120318 | 61 | 190 | 2.0 | 8.0 | 0.00 | 0.56 | 0.55 | 94 | 1007.7 |
| 20260831115811 | 61 | 168 | 2.0 | 9.0 | 0.00 | 0.56 | 0.50 | 94 | 1007.5 |
| 20260831115314 | 61 | 205 | 1.0 | 9.0 | 0.00 | 0.56 | 0.50 | 94 | 1007.4 |
| 20260831114810 | 61 | 162 | 1.0 | 7.0 | 0.02 | 0.56 | 0.50 | 94 | 1007.4 |
| 20260831113814 | 61 | 200 | 1.0 | 8.0 | 0.02 | 0.56 | 0.50 | 94 | 1007.3 |
| 20260831113307 | 61 | 193 | 2.0 | 5.0 | 0.02 | 0.56 | 0.50 | 95 | 1007.1 |
| 20260831112810 | 61 | 252 | 2.0 | 8.0 | 0.02 | 0.56 | 0.50 | 95 | 1007.0 |
| 20260831112313 | 61 | 224 | 1.0 | 8.0 | 0.02 | 0.56 | 0.50 | 94 | 1007.0 |
| 20260831111814 | 61 | 188 | 0.0 | 2.0 | 0.06 | 0.56 | 0.50 | 95 | 1007.1 |
| 20260831111313 | 60 | 121 | 0.0 | 0.0 | 0.06 | 0.56 | 0.50 | 95 | 1007.2 |
| 20260831110809 | 59 | 13 | 0.0 | 0.0 | 0.06 | 0.56 | 0.50 | 94 | 1007.0 |
| 20260831110311 | 58 | 199 | 0.0 | 0.0 | 0.06 | 0.56 | 0.55 | 94 | 1007.0 |
| 20260831105805 | 58 | 199 | 0.0 | 0.0 | 0.06 | 0.56 | 0.55 | 94 | 1007.0 |
| 20260831105235 | 58 | 199 | 0.0 | 0.0 | 0.06 | 0.56 | 0.54 | 94 | 1007.1 |
| 20260831104736 | 59 | 236 | 0.0 | 0.0 | 0.05 | 0.54 | 0.54 | 94 | 1006.8 |
| 20260831104215 | 59 | 236 | 0.0 | 2.0 | 0.05 | 0.54 | 0.54 | 94 | 1006.9 |
| 20260831103213 | 58 | 199 | 0.0 | 5.0 | 0.06 | 0.54 | 0.54 | 94 | 1006.8 |
| 20260831102139 | 60 | 190 | 0.0 | 7.0 | 0.05 | 0.50 | 0.50 | 94 | 1006.7 |
| 20260831101637 | 60 | 11 | 0.0 | 7.0 | 0.05 | 0.50 | 0.50 | 94 | 1006.4 |
| 20260831101134 | 60 | 162 | 0.0 | 4.0 | 0.05 | 0.50 | 0.50 | 94 | 1006.4 |
| 20260831100624 | 59 | 188 | 0.0 | 4.0 | 0.05 | 0.50 | 0.50 | 94 | 1006.1 |
| 20260831100108 | 59 | 127 | 0.0 | 9.0 | 0.05 | 0.50 | 0.50 | 94 | 1006.1 |
| 20260831095636 | 58 | 124 | 0.0 | 9.0 | 0.06 | 0.50 | 0.47 | 94 | 1006.2 |
| 20260831094541 | 58 | 198 | 0.0 | 1.0 | 0.06 | 0.50 | 0.46 | 93 | 1006.3 |
| 20260831094100 | 58 | 226 | 0.0 | 5.0 | 0.05 | 0.49 | 0.46 | 93 | 1006.3 |
| 20260831093537 | 58 | 23 | 0.0 | 5.0 | 0.04 | 0.48 | 0.45 | 93 | 1006.3 |
| 20260831092635 | 58 | 205 | 1.0 | 5.0 | 0.03 | 0.47 | 0.44 | 93 | 1006.3 |
| 20260831092046 | 58 | 172 | 0.0 | 4.0 | 0.02 | 0.46 | 0.43 | 93 | 1006.3 |
| 20260831091526 | 58 | 356 | 0.0 | 0.0 | 0.02 | 0.46 | 0.43 | 93 | 1006.3 |
| 20260831091047 | 58 | 194 | 2.0 | 13.0 | 0.02 | 0.46 | 0.43 | 93 | 1006.2 |
| 20260831090546 | 60 | 91 | 4.0 | 13.0 | 0.02 | 0.46 | 0.43 | 93 | 1006.1 |
| 20260831085552 | 61 | 189 | 2.0 | 13.0 | 0.02 | 0.45 | 0.43 | 94 | 1005.9 |
| 20260831085033 | 62 | 72 | 1.0 | 12.0 | 0.01 | 0.44 | 0.43 | 94 | 1005.8 |
| 20260831084523 | 62 | 43 | 2.0 | 12.0 | 0.01 | 0.44 | 0.43 | 94 | 1005.6 |
| 20260831083438 | 61 | 158 | 1.0 | 13.0 | 0.01 | 0.44 | 0.43 | 94 | 1005.6 |
| 20260831082940 | 61 | 27 | 0.0 | 12.0 | 0.01 | 0.44 | 0.43 | 94 | 1005.5 |
| 20260831082429 | 61 | 49 | 1.0 | 5.0 | 0.01 | 0.44 | 0.43 | 94 | 1005.5 |
| 20260831081915 | 61 | 26 | 1.0 | 16.0 | 0.01 | 0.44 | 0.43 | 94 | 1005.8 |
| 20260831081429 | 61 | 60 | 1.0 | 16.0 | 0.00 | 0.43 | 0.43 | 94 | 1005.8 |
| 20260831080916 | 61 | 344 | 0.0 | 6.0 | 0.00 | 0.43 | 0.43 | 94 | 1005.8 |
| 20260831075910 | 59 | 221 | 0.0 | 2.0 | 0.00 | 0.43 | 0.43 | 94 | 1005.8 |
| 20260831074834 | 59 | 211 | 0.0 | 0.0 | 0.00 | 0.43 | 0.43 | 94 | 1005.9 |
| 20260831074334 | 59 | 79 | 0.0 | 1.0 | 0.00 | 0.43 | 0.43 | 94 | 1005.9 |
| 20260831073833 | 58 | 317 | 0.0 | 1.0 | 0.00 | 0.43 | 0.43 | 94 | 1005.8 |
| 20260831072810 | 58 | 133 | 0.0 | 1.0 | 0.02 | 0.43 | 0.43 | 94 | 1005.9 |
| 20260831071813 | 58 | 91 | 0.0 | 0.0 | 0.25 | 0.43 | 0.43 | 93 | 1005.8 |
| 20260831071234 | 58 | 111 | 0.0 | 4.0 | 0.25 | 0.43 | 0.43 | 93 | 1005.7 |
| 20260831070734 | 58 | 77 | 0.0 | 4.0 | 0.25 | 0.43 | 0.43 | 93 | 1005.8 |
| 20260831070212 | 58 | 156 | 0.0 | 4.0 | 0.26 | 0.43 | 0.43 | 93 | 1005.7 |
| 20260831065707 | 58 | 156 | 0.0 | 4.0 | 0.26 | 0.43 | 0.31 | 93 | 1005.9 |
| 20260831065208 | 58 | 173 | 1.0 | 11.0 | 0.26 | 0.43 | 0.31 | 93 | 1006.1 |
| 20260831064216 | 58 | 103 | 1.0 | 8.0 | 0.26 | 0.43 | 0.31 | 92 | 1006.4 |
| 20260831063710 | 57 | 54 | 1.0 | 8.0 | 0.26 | 0.43 | 0.31 | 92 | 1006.4 |
| 20260831063211 | 58 | 200 | 1.0 | 0.0 | 0.27 | 0.43 | 0.31 | 92 | 1006.4 |
| 20260831062131 | 60 | 203 | 0.0 | 2.0 | 0.03 | 0.18 | 0.06 | 92 | 1006.1 |
| 20260831061612 | 61 | 76 | 0.0 | 0.0 | 0.11 | 0.18 | 0.06 | 92 | 1006.2 |
| 20260831061113 | 61 | 78 | 0.0 | 0.0 | 0.12 | 0.18 | 0.06 | 92 | 1005.9 |
| 20260831060613 | 61 | 49 | 0.0 | 0.0 | 0.11 | 0.17 | 0.06 | 92 | 1005.9 |
| 20260831060125 | 61 | 22 | 0.0 | 0.0 | 0.11 | 0.17 | 0.17 | 92 | 1006.0 |
| 20260831055606 | 61 | 27 | 0.0 | 0.0 | 0.11 | 0.17 | 0.17 | 92 | 1006.0 |
| 20260831055116 | 61 | 310 | 0.0 | 0.0 | 0.11 | 0.17 | 0.17 | 92 | 1006.1 |
| 20260831054619 | 61 | 79 | 0.0 | 0.0 | 0.11 | 0.17 | 0.17 | 92 | 1006.2 |
| 20260831054113 | 61 | 8 | 0.0 | 0.0 | 0.11 | 0.17 | 0.17 | 92 | 1006.0 |
| 20260831053609 | 61 | 41 | 0.0 | 0.0 | 0.10 | 0.17 | 0.16 | 91 | 1005.9 |
| 20260831053111 | 61 | 63 | 0.0 | 0.0 | 0.10 | 0.17 | 0.16 | 91 | 1005.9 |
| 20260831052108 | 61 | 57 | 0.0 | 0.0 | 0.02 | 0.08 | 0.06 | 91 | 1006.0 |
| 20260831051610 | 61 | 16 | 0.0 | 0.0 | 0.01 | 0.07 | 0.06 | 91 | 1005.9 |
| 20260831050611 | 60 | 27 | 0.0 | 0.0 | 0.00 | 0.06 | 0.06 | 91 | 1005.8 |
| 20260831050110 | 60 | 29 | 0.0 | 0.0 | 0.00 | 0.06 | 0.06 | 91 | 1005.8 |
| 20260831045607 | 60 | 25 | 0.0 | 0.0 | 0.00 | 0.06 | 0.06 | 91 | 1005.8 |
| 20260831045108 | 60 | 25 | 0.0 | 0.0 | 0.00 | 0.06 | 0.06 | 91 | 1005.9 |
| 20260831044111 | 60 | 50 | 0.0 | 0.0 | 0.00 | 0.06 | 0.06 | 91 | 1005.8 |
| 20260831043612 | 60 | 34 | 0.0 | 0.0 | 0.01 | 0.06 | 0.06 | 91 | 1005.9 |
| 20260831043110 | 60 | 26 | 0.0 | 0.0 | 0.01 | 0.06 | 0.06 | 91 | 1005.9 |
| 20260831042613 | 60 | 20 | 0.0 | 0.0 | 0.01 | 0.06 | 0.06 | 91 | 1006.0 |
| 20260831042110 | 61 | 37 | 0.0 | 0.0 | 0.01 | 0.06 | 0.06 | 91 | 1005.8 |
| 20260831041606 | 61 | 34 | 0.0 | 0.0 | 0.01 | 0.06 | 0.06 | 91 | 1005.8 |
| 20260831040539 | 61 | 29 | 0.0 | 0.0 | 0.03 | 0.06 | 0.06 | 91 | 1005.8 |
| 20260831040048 | 61 | 20 | 0.0 | 0.0 | 0.03 | 0.06 | 0.06 | 91 | 1005.9 |
| 20260831035543 | 61 | 172 | 0.0 | 0.0 | 0.03 | 0.06 | 0.06 | 91 | 1006.0 |
| 20260831034526 | 62 | 46 | 0.0 | 0.0 | 0.03 | 0.06 | 0.06 | 91 | 1006.1 |
| 20260831033938 | 62 | 41 | 0.0 | 0.0 | 0.03 | 0.06 | 0.05 | 91 | 1006.1 |
| 20260831032940 | 62 | 106 | 0.0 | 0.0 | 0.02 | 0.06 | 0.05 | 91 | 1006.1 |
| 20260831032438 | 62 | 37 | 0.0 | 0.0 | 0.02 | 0.06 | 0.05 | 91 | 1006.1 |
| 20260831031914 | 62 | 46 | 0.0 | 0.0 | 0.02 | 0.06 | 0.05 | 91 | 1006.1 |
| 20260831031411 | 62 | 39 | 0.0 | 0.0 | 0.02 | 0.06 | 0.05 | 91 | 1006.1 |
| 20260831030852 | 62 | 70 | 0.0 | 0.0 | 0.01 | 0.04 | 0.02 | 91 | 1006.2 |
| 20260831030338 | 62 | 55 | 0.0 | 0.0 | 0.00 | 0.04 | 0.02 | 91 | 1006.1 |
| 20260831025816 | 62 | 51 | 0.0 | 0.0 | 0.00 | 0.04 | 0.02 | 91 | 1006.1 |
| 20260831025312 | 62 | 75 | 0.0 | 0.0 | 0.00 | 0.04 | 0.02 | 91 | 1006.2 |
| 20260831024818 | 62 | 46 | 0.0 | 0.0 | 0.00 | 0.04 | 0.02 | 91 | 1006.4 |
| 20260831023809 | 62 | 39 | 0.0 | 0.0 | 0.00 | 0.04 | 0.02 | 91 | 1006.3 |
| 20260831023312 | 62 | 90 | 0.0 | 0.0 | 0.00 | 0.04 | 0.02 | 91 | 1006.4 |
| 20260831022308 | 62 | 60 | 0.0 | 0.0 | 0.00 | 0.04 | 0.02 | 91 | 1006.6 |
| 20260831021307 | 62 | 30 | 0.0 | 0.0 | 0.00 | 0.04 | 0.02 | 91 | 1006.6 |
| 20260831020807 | 62 | 133 | 0.0 | 0.0 | 0.00 | 0.04 | 0.02 | 91 | 1006.6 |
| 20260831020305 | 62 | 32 | 0.0 | 0.0 | 0.00 | 0.04 | 0.02 | 91 | 1006.6 |
| 20260831015736 | 62 | 120 | 0.0 | 0.0 | 0.00 | 0.04 | 0.00 | 91 | 1006.8 |
| 20260831015234 | 62 | 84 | 0.0 | 0.0 | 0.00 | 0.04 | 0.00 | 91 | 1007.0 |
| 20260831014733 | 62 | 43 | 0.0 | 0.0 | 0.00 | 0.04 | 0.00 | 91 | 1007.0 |
| 20260831014233 | 62 | 43 | 0.0 | 0.0 | 0.00 | 0.04 | 0.00 | 91 | 1007.1 |
| 20260831013716 | 62 | 43 | 0.0 | 0.0 | 0.01 | 0.04 | 0.00 | 91 | 1007.1 |
| 20260831013220 | 62 | 41 | 0.0 | 0.0 | 0.02 | 0.04 | 0.00 | 91 | 1007.1 |
| 20260831012709 | 62 | 41 | 0.0 | 0.0 | 0.02 | 0.04 | 0.00 | 91 | 1007.0 |
| 20260831012211 | 62 | 36 | 0.0 | 0.0 | 0.02 | 0.04 | 0.00 | 91 | 1007.1 |
| 20260831011234 | 63 | 37 | 0.0 | 0.0 | 0.02 | 0.04 | 0.00 | 91 | 1007.0 |
| 20260831010708 | 63 | 37 | 0.0 | 0.0 | 0.02 | 0.04 | 0.00 | 91 | 1007.0 |
| 20260831010215 | 63 | 35 | 0.0 | 0.0 | 0.02 | 0.04 | 0.02 | 91 | 1006.9 |
| 20260831005211 | 63 | 35 | 0.0 | 0.0 | 0.02 | 0.04 | 0.02 | 91 | 1007.0 |
| 20260831004710 | 63 | 32 | 0.0 | 0.0 | 0.02 | 0.04 | 0.02 | 91 | 1007.3 |
| 20260831004208 | 63 | 44 | 0.0 | 0.0 | 0.02 | 0.04 | 0.02 | 91 | 1007.2 |
| 20260831003708 | 63 | 18 | 0.0 | 0.0 | 0.02 | 0.03 | 0.02 | 91 | 1007.3 |
| 20260831003209 | 63 | 35 | 0.0 | 0.0 | 0.01 | 0.02 | 0.01 | 91 | 1007.3 |
| 20260831002707 | 63 | 30 | 0.0 | 0.0 | 0.01 | 0.02 | 0.01 | 90 | 1007.4 |
| 20260831002208 | 63 | 19 | 0.0 | 0.0 | 0.01 | 0.02 | 0.00 | 90 | 1007.4 |
| 20260831001709 | 63 | 16 | 0.0 | 0.0 | 0.00 | 0.02 | 0.00 | 90 | 1007.4 |
| 20260831001208 | 63 | 13 | 0.0 | 0.0 | 0.00 | 0.02 | 0.00 | 90 | 1007.4 |
| 20260831000708 | 63 | 32 | 0.0 | 0.0 | 0.00 | 0.02 | 0.00 | 90 | 1007.4 |
| 20260831000211 | 63 | 45 | 0.0 | 0.0 | 0.00 | 0.02 | 0.00 | 90 | 1007.4 |
| 20260830235704 | 63 | 87 | 0.0 | 0.0 | 0.00 | 0.02 | 0.00 | 90 | 1007.5 |
| 20260830235206 | 63 | 63 | 0.0 | 0.0 | 0.00 | 0.02 | 0.00 | 90 | 1007.5 |
| 20260830234711 | 63 | 67 | 0.0 | 0.0 | 0.00 | 0.02 | 0.00 | 91 | 1007.6 |
| 20260830233710 | 63 | 70 | 0.0 | 0.0 | 0.00 | 0.02 | 0.00 | 91 | 1007.6 |
| 20260830232710 | 63 | 42 | 0.0 | 0.0 | 0.00 | 0.03 | 0.00 | 91 | 1007.7 |
| 20260830232208 | 63 | 52 | 0.0 | 0.0 | 0.00 | 0.06 | 0.00 | 91 | 1007.6 |